User: anonymous   Login
Location: Mainz-Finthen
(49.9906°N, 8.1713°E)
Time: 04:05:49
(UTC+00:00)
Language:

NO-84 - Orbit

View from above orbital plane
View from above orbital plane
View from above satellite
View from above satellite

Ground track
Ground track

The orbit data is extracted from the following two-line orbital elements,

1 40654U 15025D   21334.25513435  .00320060  54032-4  58416-3 0  2644
2 40654  54.9664 327.7871 0031359 137.8846 222.4647 15.99945301 33254
Epoch (UTC): 30 November 2021 06:07:23
Eccentricity: 0.0031359
inclination: 54.9664°
perigee height: 254 km
apogee height: 295 km
right ascension of ascending node: 327.7871°
argument of perigee: 137.8846°
revolutions per day: 15.99945301
mean anomaly at epoch: 222.4647°
orbit number at epoch: 3325

The dashed part of the orbit path shows where the satellite is in the earth's shadow,  

DLR